| time (UTC) | temp C | wind direction | speed KPH | gust KPH | rain 1hr cm | rain 24hr cm | rain mn cm | humidity % | barometer mb |
| 20260504232035 | 16 | 229 | 0.0 | 22.5 | 0.00 | 0.00 | 0.00 | 54 | 1009.2 |
| 20260504231926 | 16 | 236 | 0.0 | 22.5 | 0.00 | 0.00 | 0.00 | 54 | 1009.2 |
| 20260504230034 | 17 | 165 | 6.4 | 33.8 | 0.00 | 0.00 | 0.00 | 51 | 1009.0 |
| 20260504224035 | 17 | 219 | 0.0 | 33.8 | 0.00 | 0.00 | 0.00 | 48 | 1008.9 |
| 20260504222034 | 17 | 209 | 6.4 | 33.8 | 0.00 | 0.00 | 0.00 | 48 | 1008.9 |
| 20260504221926 | 17 | 201 | 0.0 | 33.8 | 0.00 | 0.00 | 0.00 | 48 | 1008.8 |
| 20260504220035 | 18 | 180 | 8.0 | 33.8 | 0.00 | 0.00 | 0.00 | 46 | 1008.7 |
| 20260504214033 | 18 | 171 | 0.0 | 33.8 | 0.00 | 0.00 | 0.00 | 44 | 1008.6 |
| 20260504212033 | 19 | 220 | 19.3 | 33.8 | 0.00 | 0.00 | 0.00 | 42 | 1008.5 |
| 20260504211926 | 19 | 218 | 11.3 | 33.8 | 0.00 | 0.00 | 0.00 | 42 | 1008.5 |
| 20260504210033 | 19 | 190 | 0.0 | 38.6 | 0.00 | 0.00 | 0.00 | 41 | 1008.4 |
| 20260504204033 | 20 | 198 | 8.0 | 38.6 | 0.00 | 0.00 | 0.00 | 40 | 1008.4 |
| 20260504202033 | 20 | 165 | 8.0 | 38.6 | 0.00 | 0.00 | 0.00 | 40 | 1008.3 |
| 20260504201926 | 20 | 177 | 0.0 | 38.6 | 0.00 | 0.00 | 0.00 | 40 | 1008.4 |
| 20260504200033 | 20 | 163 | 0.0 | 30.6 | 0.00 | 0.00 | 0.00 | 36 | 1008.3 |
| 20260504194033 | 21 | 167 | 0.0 | 30.6 | 0.00 | 0.00 | 0.00 | 35 | 1008.3 |
| 20260504192033 | 20 | 224 | 30.6 | 30.6 | 0.00 | 0.00 | 0.00 | 34 | 1008.3 |
| 20260504191926 | 20 | 200 | 17.7 | 30.6 | 0.00 | 0.00 | 0.00 | 35 | 1008.2 |
| 20260504190033 | 20 | 178 | 0.0 | 38.6 | 0.00 | 0.00 | 0.00 | 34 | 1008.4 |
| 20260504184035 | 20 | 247 | 0.0 | 38.6 | 0.00 | 0.00 | 0.00 | 33 | 1008.6 |
| 20260504182035 | 20 | 220 | 4.8 | 38.6 | 0.00 | 0.00 | 0.00 | 34 | 1008.9 |
| 20260504181926 | 20 | 232 | 8.0 | 38.6 | 0.00 | 0.00 | 0.00 | 34 | 1008.9 |
| 20260504180034 | 20 | 230 | 20.9 | 30.6 | 0.00 | 0.00 | 0.00 | 35 | 1009.1 |
| 20260504174034 | 20 | 228 | 3.2 | 30.6 | 0.00 | 0.00 | 0.00 | 35 | 1009.2 |
| 20260504172032 | 20 | 237 | 8.0 | 30.6 | 0.00 | 0.00 | 0.00 | 34 | 1009.1 |
| 20260504171926 | 20 | 189 | 8.0 | 30.6 | 0.00 | 0.00 | 0.00 | 34 | 1009.2 |
| 20260504090128 | 2 | 291 | 0.0 | 0.0 | 0.00 | 0.00 | 0.00 | 57 | 1011.8 |
| 20260504081926 | 3 | 291 | 0.0 | 0.0 | 0.00 | 0.00 | 0.00 | 55 | 1011.4 |
| 20260504044033 | 1 | 291 | 0.0 | 0.0 | 0.00 | 0.00 | 0.00 | 53 | 1011.8 |
| 20260504042033 | 2 | 291 | 0.0 | 0.0 | 0.00 | 0.00 | 0.00 | 55 | 1011.7 |
| 20260504041926 | 2 | 291 | 0.0 | 0.0 | 0.00 | 0.00 | 0.00 | 55 | 1011.5 |
| 20260504040033 | 2 | 291 | 0.0 | 0.0 | 0.00 | 0.00 | 0.00 | 57 | 1011.4 |
| 20260504034032 | 2 | 291 | 0.0 | 0.0 | 0.00 | 0.00 | 0.00 | 59 | 1011.2 |
| 20260504032032 | 2 | 291 | 0.0 | 0.0 | 0.00 | 0.00 | 0.00 | 63 | 1011.3 |
| 20260504031925 | 2 | 291 | 0.0 | 0.0 | 0.00 | 0.00 | 0.00 | 63 | 1011.3 |
| 20260504030032 | 3 | 291 | 0.0 | 0.0 | 0.00 | 0.00 | 0.00 | 66 | 1011.1 |
| 20260504024033 | 3 | 291 | 0.0 | 0.0 | 0.00 | 0.00 | 0.00 | 67 | 1011.0 |
| 20260504022032 | 3 | 291 | 0.0 | 0.0 | 0.00 | 0.00 | 0.00 | 69 | 1010.8 |
| 20260504021926 | 3 | 291 | 0.0 | 0.0 | 0.00 | 0.00 | 0.00 | 69 | 1010.8 |
| 20260504020033 | 4 | 291 | 0.0 | 0.0 | 0.00 | 0.00 | 0.00 | 70 | 1010.7 |
| 20260504014033 | 5 | 291 | 0.0 | 0.0 | 0.00 | 0.00 | 0.00 | 69 | 1010.6 |
| 20260504011926 | 5 | 291 | 0.0 | 0.0 | 0.00 | 0.00 | 0.00 | 66 | 1010.4 |
| 20260504010033 | 6 | 291 | 0.0 | 0.0 | 0.00 | 0.00 | 0.00 | 63 | 1010.0 |
| 20260504004034 | 7 | 291 | 0.0 | 0.0 | 0.00 | 0.00 | 0.00 | 57 | 1009.6 |
| 20260504002033 | 8 | 291 | 0.0 | 0.0 | 0.00 | 0.00 | 0.00 | 53 | 1009.4 |
| 20260504001926 | 8 | 291 | 0.0 | 0.0 | 0.00 | 0.00 | 0.00 | 53 | 1009.4 |
| 20260504000033 | 10 | 291 | 0.0 | 12.9 | 0.00 | 0.00 | 0.00 | 49 | 1009.3 |
| 20260503234034 | 10 | 291 | 0.0 | 12.9 | 0.00 | 0.00 | 0.00 | 45 | 1009.1 |